Weather History for KROC - January, 2013

Change the Weather History Date:

Wednesday, January 9, 2013

  Actual Average Record
Temperature  
Mean Temperature 35 °F 25 °F  
Max Temperature 47 °F 32 °F 65 °F (1937)
Min Temperature 22 °F 18 °F -8 °F (1968)
Degree Days  
Heating Degree Days 30 40  
Month to date heating degree days 329 356  
Since 1 July heating degree days 2505 2809  
Cooling Degree Days 0 0  
Month to date cooling degree days 0 0  
Year to date cooling degree days 0 0  
Moisture  
Dew Point 26 °F    
Average Humidity 67    
Maximum Humidity 81    
Minimum Humidity 53    
Precipitation  
Precipitation T in 0.08 in 0.90 in (1884)
Month to date precipitation 0.17 0.73  
Year to date precipitation 0.17 0.73  
Snow  
Snow 0.00 in 1.00 in 9.00 in (1884)
Month to date snowfall 3.9 8.0  
Since 1 July snowfall 27.3 37.2  
Snow Depth 3.00 in    
Sea Level Pressure  
Sea Level Pressure 30.15 in    
Wind  
Wind Speed 14 mph (SW)    
Max Wind Speed 33 mph    
Max Gust Speed 45 mph    
Visibility 10 miles    
Events      
T = Trace of Precipitation, MM = Missing Value Source: NWS Daily Summary

Daily Weather History Graph

Daily Weather History Graph

Search for Another Location

Airport or City:

Trip Planner

Search our weather history database for the weather conditions in past years. The results will help you decide how hot, cold, wet, or windy it might be!

Date:

Astronomy

Jan. 09, 2013 Rise Set
Actual Time 7:41 AM EST 4:54 PM EST
Civil Twilight 7:09 AM EST 5:26 PM EST
Nautical Twilight 6:34 AM EST 6:01 PM EST
Astronomical Twilight 6:00 AM EST 6:36 PM EST
Moon 5:18 AM EST (1/9) 2:54 PM EST (1/9)
Length of Visible Light 10h 16m
Length of Day
9h 12m
Waning Crescent, 6% of the Moon is Illuminated
Jan 9
Waning Crescent
Jan 11
New
Jan 18
First Quarter
Jan 26
Full
Feb 3
Last Quarter

Hourly Weather History & Observations

Time (EST) Temp. Windchill Dew Point Humidity Pressure Visibility Wind Dir Wind Speed Gust Speed Precip Events Conditions
12:54 AM 24.1 °F 19.7 °F 19.9 °F 84% 30.30 in 8.0 mi SW 3.5 mph - N/A   Mostly Cloudy
1:54 AM 27.0 °F 23.0 °F 19.0 °F 72% 30.28 in 10.0 mi SSW 3.5 mph - N/A   Scattered Clouds
2:54 AM 30.0 °F 22.4 °F 21.0 °F 69% 30.29 in 10.0 mi SSW 8.1 mph - N/A   Scattered Clouds
3:54 AM 27.0 °F 23.0 °F 19.9 °F 75% 30.26 in 10.0 mi South 3.5 mph - N/A   Partly Cloudy
4:54 AM 28.0 °F 20.0 °F 21.0 °F 75% 30.24 in 10.0 mi SW 8.1 mph - N/A   Partly Cloudy
5:54 AM 30.0 °F 25.2 °F 21.9 °F 72% 30.23 in 10.0 mi SSW 4.6 mph - N/A   Scattered Clouds
6:54 AM 28.0 °F 21.7 °F 21.0 °F 75% 30.22 in 10.0 mi SW 5.8 mph - N/A   Mostly Cloudy
7:54 AM 30.0 °F 25.2 °F 23.0 °F 75% 30.18 in 10.0 mi South 4.6 mph - N/A   Overcast
8:54 AM 32.0 °F 26.4 °F 24.1 °F 73% 30.15 in 10.0 mi SW 5.8 mph - N/A   Overcast
9:54 AM 36.0 °F 27.5 °F 25.0 °F 64% 30.12 in 10.0 mi SSW 12.7 mph 19.6 mph N/A   Overcast
10:54 AM 39.9 °F 31.4 °F 26.1 °F 58% 30.05 in 10.0 mi SSW 16.1 mph 25.3 mph 0.00 in   Overcast
11:54 AM 44.6 °F 37.8 °F 28.4 °F 53% 29.98 in 10.0 mi SSW 15.0 mph 25.3 mph N/A   Overcast
12:54 PM 44.1 °F 38.1 °F 30.9 °F 60% 29.97 in 10.0 mi SSW 11.5 mph - N/A   Overcast
1:54 PM 46.0 °F 38.3 °F 34.0 °F 63% 29.97 in 10.0 mi WSW 20.7 mph 39.1 mph N/A   Scattered Clouds
2:54 PM 46.0 °F 38.3 °F 32.0 °F 58% 29.99 in 10.0 mi West 20.7 mph 44.9 mph N/A   Scattered Clouds
3:54 PM 43.0 °F 33.1 °F 30.9 °F 62% 30.02 in 10.0 mi West 26.5 mph 36.8 mph N/A   Partly Cloudy
4:54 PM 41.0 °F 31.1 °F 30.9 °F 67% 30.05 in 10.0 mi West 23.0 mph 36.8 mph N/A   Partly Cloudy
5:54 PM 41.0 °F 31.4 °F 30.9 °F 67% 30.10 in 10.0 mi WSW 21.9 mph 28.8 mph N/A   Clear
6:54 PM 41.0 °F 32.2 °F 30.9 °F 67% 30.13 in 10.0 mi West 18.4 mph 32.2 mph N/A   Scattered Clouds
7:54 PM 41.0 °F 32.2 °F 30.0 °F 65% 30.14 in 10.0 mi West 18.4 mph 31.1 mph N/A   Scattered Clouds
8:54 PM 41.0 °F 31.9 °F 30.0 °F 65% 30.18 in 10.0 mi West 19.6 mph 29.9 mph N/A   Overcast
9:54 PM 39.9 °F 30.8 °F 28.9 °F 65% 30.25 in 10.0 mi West 18.4 mph 26.5 mph N/A   Overcast
10:54 PM 39.9 °F 30.0 °F 26.1 °F 58% 30.29 in 10.0 mi WNW 21.9 mph 28.8 mph N/A   Overcast
11:54 PM 39.9 °F 32.1 °F 25.0 °F 55% 30.32 in 10.0 mi West 13.8 mph 27.6 mph N/A   Overcast